Regional Weather Roundup
Issued by NWS Jackson, KY

Home | Current Version | Previous Version | Text Only | Print | Product List | Glossary Off
Versions: 1 2 3 4 5 6 7 8 9 10 11 12 13 14 15 16 17 18 19 20 21 22 23 24 25 26 27 28 29 30 31 32 33 34 35 36 37 38 39 40 41 42 43 44 45 46 47 48 49 50

750
ASUS43 KJKL 220810
RWRJKL

EAST KENTUCKY HOURLY WEATHER ROUNDUP
NATIONAL WEATHER SERVICE JACKSON KY
400 AM EDT SUN APR 22 2018

NOTE: "FAIR" INDICATES FEW OR NO CLOUDS BELOW 12,000 FEET WITH
NO SIGNIFICANT WEATHER AND/OR OBSTRUCTIONS TO VISIBILITY.

* THESE REPORTS ARE NOT UNDER NWS QUALITY CONTROL AND MAY NOT
  REPORT WEATHER SUCH AS PRECIPITATION AND FOG.

KYZ079-080-083-085-087-088-110-112-115-119-120-220900
...EASTERN KENTUCKY...

CITY           SKY/WX    TMP DP  RH WIND       PRES   REMARKS
JACKSON          N/A     53  20  27 VRB5      30.24F
LONDON           N/A     54  27  35 CALM      30.23F
SOMERSET*        N/A     50  34  53 CALM      30.23F
MONTICELLO*      N/A     48  41  76 VRB6      30.23F
WILLIAMSBURG*    N/A     48  37  66 CALM      30.23S
MIDDLESBORO*     N/A     45  40  83 CALM      30.25F
HARLAN APT*      N/A     46  37  69 CALM      30.25F
PIKE CO APT*     N/A     49  24  36 NE3       30.26S
BIG SANDY APT*   N/A     51  20  29 NE3       30.26S
MOREHEAD APT*    N/A     54  19  26 E8        30.27F
ASHLAND*         N/A     44  35  70 CALM      30.28F
$$

KYZ035-036-041-042-044-050-067-078-099-220900
...CENTRAL KENTUCKY...

CITY           SKY/WX    TMP DP  RH WIND       PRES   REMARKS
MT STERLING*     N/A     50  28  43 E7        30.25F
FLEMING/MASON*   N/A     47  27  45 NE8       30.28F
DANVILLE*        N/A     45  32  61 CALM      30.23F
LEXINGTON        N/A     50  28  42 NE8       30.24F
FRANKFORT        N/A     51  26  37 NE6       30.23F
LOUISVILLE     CLOUDY    54  26  34 NE3       30.23F
GLASGOW*         N/A     52  36  54 E3        30.20S
BOWLING GREEN    N/A     56  38  50 E8        30.19S
$$

KYZ091>093-OHZ055-061-077-WVZ005-015-034-035-042-220900
...SOUTHERN OHIO/WEST VIRGINIA...

CITY           SKY/WX    TMP DP  RH WIND       PRES   REMARKS
COVINGTON      CLOUDY    50  26  39 E12       30.26F
COLUMBUS       CLOUDY    46  26  45 NE6       30.32S
DAYTON         CLOUDY    42  27  55 NE7       30.31F
WILMINGTON       N/A     43  31  62 NE7       30.29F
HUNTINGTON       N/A     52  21  29 NE5       30.27F
CHARLESTON     MOCLDY    48  29  47 CALM      30.27R
PINEVILLE*       N/A     45  33  64 MISG      30.32S
BECKLEY          N/A     51  30  44 SE6       30.27S
BLUEFIELD        N/A     51  27  39 S9        30.29R
LOGAN CO APT*    N/A     54  21  28 CALM      30.26S
$$

VAZ002-007-008-TNZ017-027-036-066-071-220900
...SOUTHWEST VIRGINIA/EAST TENNESSEE...

CITY           SKY/WX    TMP DP  RH WIND       PRES   REMARKS
WISE*            N/A     54  32  43 SE3       30.28F
JONESVILLE*      N/A     43  37  81 CALM      30.28S
ABINGDON*        N/A     47  35  62 CALM      30.28S
BRISTOL          N/A     44  38  79 CALM      30.26S
MORRISTOWN*    MOSUNNY   48  37  66 NE3       30.23F
SEVIERVILLE*   CLOUDY    46  39  76 CALM      30.23S
KNOXVILLE      CLOUDY    50  43  77 CALM      30.22S
LAFOLLETTE*    SUNNY     45  41  87 CALM      30.26S
OAK RIDGE        N/A     48  43  82 CALM      30.24F
CROSSVILLE     CLOUDY    55  37  50 SE3       30.22F
NASHVILLE      CLOUDY    57  39  51 E7        30.15F
$$

...KEY TO REMARKS...
VSB - VISIBILITY IN MILES
WCI - WIND CHILL INDEX
HX  - HEAT INDEX

$$




USA.gov is the U.S. government's official web portal to all federal, state and local government web resources and services.